Location: Degersen
(52.2871°N, 9.5716°E)
Time: 00:08:52
(UTC+00:00)

CZ-2C R/B - Pass Details

Date: 20 January 2026
Orbit: 662 x 774 km, 98.4° (Epoch: 9 February)

Event Time Altitude Azimuth Distance (km) Brightness Sun altitude
Rises 05:02:05 0° 7° (N) 3,035 5.6 -20.4°
Reaches altitude 10° 05:04:41 10° 353° (N) 2,106 4.6 -20.0°
Enters shadow 05:05:43 15° 344° (NNW) 1,792 4.2 -19.8°
